• In Netherlands
  • List of Countries
  • For 7 days
  • Water Temperature
  • Satellite Maps
  • Weather Map
  • Weather Widgets
  • user-avatar
    Login

    Hourly Weather Adelaide

    Today, 29 May, Monday

    Time Temperature Precipitation Wind Pressure Humidity
    00:00 +10°C° 0 mm 2 mps 761 mmHg 76%
    01:00 +10°C° 0 mm 2 mps 761 mmHg 78%
    02:00 +10°C° 0 mm 2 mps 761 mmHg 80%
    03:00 +10°C° 0 mm 2 mps 761 mmHg 82%
    04:00 +10°C° 0 mm 2 mps 761 mmHg 83%
    05:00 +10°C° 0 mm 2 mps 761 mmHg 85%
    06:00 +10°C° 0 mm 2 mps 762 mmHg 87%
    07:00 +11°C° 0.1 mm 3 mps 762 mmHg 85%
    08:00 +12°C° 0.1 mm 3 mps 762 mmHg 82%
    09:00 +13°C° 0.1 mm 4 mps 762 mmHg 80%
    10:00 +14°C° 0.2 mm 4 mps 762 mmHg 80%
    11:00 +14°C° 0.2 mm 4 mps 762 mmHg 79%
    12:00 +15°C° 0.2 mm 4 mps 762 mmHg 78%
    13:00 +15°C° 0.2 mm 4 mps 762 mmHg 77%
    14:00 +16°C° 0.2 mm 3 mps 762 mmHg 75%
    15:00 +16°C° 0.2 mm 3 mps 762 mmHg 73%
    16:00 +14°C° 0 mm 3 mps 762 mmHg 77%
    17:00 +13°C° 0 mm 3 mps 762 mmHg 81%
    18:00 +12°C° 0 mm 3 mps 762 mmHg 85%
    19:00 +12°C° 0 mm 3 mps 763 mmHg 85%
    20:00 +12°C° 0 mm 3 mps 763 mmHg 85%
    21:00 +12°C° 0 mm 3 mps 763 mmHg 85%
    22:00 +12°C° 0.1 mm 3 mps 763 mmHg 86%
    23:00 +12°C° 0.1 mm 3 mps 764 mmHg 86%

    Tomorrow, 30 May, Tuesday

    Time Temperature Precipitation Wind Pressure Humidity
    00:00 +12°C° 0.1 mm 3 mps 764 mmHg 87%
    01:00 +12°C° 0.1 mm 3 mps 764 mmHg 88%
    02:00 +12°C° 0.1 mm 3 mps 764 mmHg 88%
    03:00 +12°C° 0.1 mm 3 mps 764 mmHg 89%
    04:00 +12°C° 0.2 mm 4 mps 764 mmHg 88%
    05:00 +12°C° 0.2 mm 4 mps 765 mmHg 88%
    06:00 +12°C° 0.2 mm 4 mps 765 mmHg 87%
    07:00 +12°C° 0 mm 5 mps 766 mmHg 81%
    08:00 +13°C° 0 mm 5 mps 767 mmHg 75%
    09:00 +13°C° 0 mm 5 mps 767 mmHg 68%
    10:00 +13°C° 0 mm 4 mps 767 mmHg 63%
    11:00 +14°C° 0 mm 4 mps 767 mmHg 58%
    12:00 +14°C° 0 mm 4 mps 767 mmHg 52%
    13:00 +14°C° 0 mm 4 mps 767 mmHg 52%
    14:00 +14°C° 0 mm 4 mps 767 mmHg 51%
    15:00 +13°C° 0 mm 4 mps 768 mmHg 51%
    16:00 +12°C° 0 mm 4 mps 768 mmHg 55%
    17:00 +11°C° 0 mm 3 mps 769 mmHg 59%
    18:00 +10°C° 0 mm 3 mps 769 mmHg 64%
    19:00 +9°C° 0 mm 3 mps 769 mmHg 66%
    20:00 +9°C° 0 mm 3 mps 770 mmHg 68%
    21:00 +8°C° 0 mm 2 mps 770 mmHg 69%
    22:00 +8°C° 0 mm 2 mps 770 mmHg 72%
    23:00 +8°C° 0 mm 2 mps 770 mmHg 74%

    Day after tomorrow, 31 May, Wednesday

    Time Temperature Precipitation Wind Pressure Humidity
    00:00 +7°C° 0 mm 2 mps 770 mmHg 76%
    01:00 +7°C° 0 mm 2 mps 770 mmHg 78%
    02:00 +7°C° 0 mm 2 mps 770 mmHg 80%
    03:00 +8°C° 0 mm 1 mps 771 mmHg 82%
    04:00 +7°C° 0 mm 1 mps 771 mmHg 82%
    05:00 +7°C° 0 mm 1 mps 771 mmHg 83%
    06:00 +7°C° 0 mm 1 mps 771 mmHg 84%
    07:00 +8°C° 0 mm 1 mps 772 mmHg 76%
    08:00 +9°C° 0 mm 2 mps 772 mmHg 68%
    09:00 +12°C° 0 mm 2 mps 772 mmHg 60%
    10:00 +13°C° 0 mm 2 mps 772 mmHg 56%
    11:00 +14°C° 0 mm 1 mps 772 mmHg 51%
    12:00 +15°C° 0 mm 1 mps 772 mmHg 46%
    13:00 +15°C° 0 mm 1 mps 771 mmHg 47%
    14:00 +15°C° 0 mm 1 mps 771 mmHg 47%
    15:00 +15°C° 0 mm 1 mps 771 mmHg 48%
    16:00 +13°C° 0 mm 1 mps 771 mmHg 54%
    17:00 +11°C° 0 mm 1 mps 772 mmHg 61%
    18:00 +9°C° 0 mm 2 mps 772 mmHg 67%
    19:00 +8°C° 0 mm 2 mps 772 mmHg 68%
    20:00 +8°C° 0 mm 2 mps 772 mmHg 69%
    21:00 +8°C° 0 mm 2 mps 773 mmHg 71%
    22:00 +8°C° 0 mm 2 mps 773 mmHg 72%
    23:00 +7°C° 0 mm 2 mps 773 mmHg 72%

    1 June, Thursday

    Time Temperature Precipitation Wind Pressure Humidity
    00:00 +7°C° 0 mm 2 mps 773 mmHg 73%
    01:00 +7°C° 0 mm 2 mps 772 mmHg 74%
    02:00 +7°C° 0 mm 3 mps 772 mmHg 74%
    03:00 +7°C° 0 mm 3 mps 772 mmHg 74%
    04:00 +5°C° 0 mm 3 mps 772 mmHg 74%
    05:00 +5°C° 0 mm 3 mps 772 mmHg 75%
    06:00 +5°C° 0 mm 3 mps 773 mmHg 75%
    07:00 +7°C° 0 mm 3 mps 773 mmHg 69%
    08:00 +9°C° 0 mm 3 mps 773 mmHg 62%
    09:00 +10°C° 0 mm 3 mps 773 mmHg 56%
    10:00 +12°C° 0 mm 2 mps 773 mmHg 51%
    11:00 +14°C° 0 mm 2 mps 773 mmHg 45%
    12:00 +15°C° 0 mm 2 mps 772 mmHg 40%
    13:00 +15°C° 0 mm 2 mps 772 mmHg 40%
    14:00 +15°C° 0 mm 1 mps 771 mmHg 39%
    15:00 +16°C° 0 mm 1 mps 771 mmHg 38%
    16:00 +13°C° 0 mm 1 mps 771 mmHg 46%
    17:00 +11°C° 0 mm 1 mps 771 mmHg 53%
    18:00 +9°C° 0 mm 1 mps 772 mmHg 61%
    19:00 +8°C° 0 mm 2 mps 772 mmHg 61%
    20:00 +8°C° 0 mm 2 mps 772 mmHg 62%
    21:00 +8°C° 0 mm 2 mps 772 mmHg 62%
    22:00 +8°C° 0 mm 2 mps 772 mmHg 62%
    23:00 +8°C° 0 mm 2 mps 772 mmHg 62%

    2 June, Friday

    Time Temperature Precipitation Wind Pressure Humidity
    00:00 +8°C° 0 mm 2 mps 772 mmHg 62%
    01:00 +7°C° 0 mm 2 mps 771 mmHg 62%
    02:00 +7°C° 0 mm 2 mps 771 mmHg 63%
    03:00 +7°C° 0 mm 2 mps 771 mmHg 64%
    04:00 +7°C° 0 mm 2 mps 771 mmHg 65%
    05:00 +7°C° 0 mm 2 mps 772 mmHg 65%
    06:00 +7°C° 0 mm 2 mps 772 mmHg 66%
    07:00 +8°C° 0 mm 2 mps 772 mmHg 61%
    08:00 +10°C° 0 mm 2 mps 772 mmHg 55%
    09:00 +12°C° 0 mm 2 mps 772 mmHg 50%
    10:00 +14°C° 0 mm 2 mps 772 mmHg 45%
    11:00 +15°C° 0 mm 2 mps 772 mmHg 41%
    12:00 +17°C° 0 mm 2 mps 771 mmHg 36%
    13:00 +18°C° 0 mm 1 mps 771 mmHg 36%
    14:00 +18°C° 0 mm 1 mps 771 mmHg 36%
    15:00 +18°C° 0 mm 1 mps 770 mmHg 36%
    16:00 +14°C° 0 mm 1 mps 770 mmHg 47%
    17:00 +11°C° 0 mm 1 mps 771 mmHg 58%
    18:00 +9°C° 0 mm 1 mps 771 mmHg 69%
    19:00 +9°C° 0 mm 1 mps 771 mmHg 65%
    20:00 +9°C° 0 mm 1 mps 771 mmHg 61%
    21:00 +8°C° 0 mm 2 mps 771 mmHg 57%
    22:00 +8°C° 0 mm 2 mps 771 mmHg 58%
    23:00 +8°C° 0 mm 2 mps 771 mmHg 58%

    3 June, Saturday

    Time Temperature Precipitation Wind Pressure Humidity
    00:00 +8°C° 0 mm 2 mps 771 mmHg 58%
    01:00 +8°C° 0 mm 2 mps 770 mmHg 59%
    02:00 +7°C° 0 mm 2 mps 770 mmHg 60%
    03:00 +7°C° 0 mm 2 mps 770 mmHg 60%
    04:00 +7°C° 0 mm 2 mps 770 mmHg 61%
    05:00 +7°C° 0 mm 2 mps 770 mmHg 62%
    06:00 +7°C° 0 mm 2 mps 771 mmHg 63%
    07:00 +8°C° 0 mm 2 mps 771 mmHg 58%
    08:00 +10°C° 0 mm 2 mps 771 mmHg 53%
    09:00 +13°C° 0 mm 2 mps 771 mmHg 48%
    10:00 +14°C° 0 mm 2 mps 770 mmHg 44%
    11:00 +16°C° 0 mm 2 mps 770 mmHg 39%
    12:00 +17°C° 0 mm 2 mps 769 mmHg 35%
    13:00 +17°C° 0 mm 2 mps 769 mmHg 35%
    14:00 +18°C° 0 mm 1 mps 768 mmHg 34%
    15:00 +18°C° 0 mm 1 mps 768 mmHg 34%
    16:00 +14°C° 0 mm 1 mps 768 mmHg 43%
    17:00 +12°C° 0 mm 1 mps 768 mmHg 52%
    18:00 +9°C° 0 mm 1 mps 768 mmHg 62%
    19:00 +9°C° 0 mm 1 mps 768 mmHg 60%
    20:00 +9°C° 0 mm 1 mps 768 mmHg 59%
    21:00 +8°C° 0 mm 2 mps 768 mmHg 58%
    22:00 +8°C° 0 mm 2 mps 768 mmHg 57%
    23:00 +8°C° 0 mm 2 mps 768 mmHg 55%
    Show more